Regional Weather Roundup
Issued by NWS Corpus Christi, TX

Home | Current Version | Previous Version | Text Only | Print | Product List | Glossary On
Versions: 1 2 3 4 5 6 7 8 9 10 11 12 13 14 15 16 17 18 19 20 21 22 23 24 25 26 27 28 29 30 31 32 33 34 35 36 37 38 39 40 41 42 43 44 45 46 47 48 49 50
588
ASUS44 KCRP 211211
RWRCRP

SOUTH TEXAS REGIONAL WEATHER ROUNDUP
NATIONAL WEATHER SERVICE CORPUS CHRISTI TX
700 AM CDT WED APR 21 2021


TXZ229>244-211300-
...CORPUS CHRISTI AREA OBSERVATIONS...

CITY           SKY/WX    TMP DP  RH WIND       PRES   REMARKS
CORPUS CHRISTI PTCLDY    55  42  61 N18       30.21R
NAS CORPUS CHR MOCLDY    58  46  64 NE20      30.20R
ROCKPORT       CLEAR     53  42  66 N17G24    30.22R
KINGSVILLE NAS CLOUDY    58  42  55 NE13G23   30.21R
ALICE          CLOUDY    56  41  57 NE16G23   30.21R
$$

...VICTORIA AREA OBSERVATIONS...

CITY           SKY/WX    TMP DP  RH WIND       PRES   REMARKS
PORT LAVACA    CLEAR     51  38  62 N15       30.25R
VICTORIA       CLEAR     47  35  63 N13       30.26R
BEEVILLE       CLOUDY    51  39  61 N20G25    30.23R
PLEASANTON     CLOUDY    50  30  46 NE16G26   30.28R
SAN ANTONIO    MOCLDY    47  25  42 N17G26    30.29R
$$

...LAREDO AREA OBSERVATIONS...

CITY           SKY/WX    TMP DP  RH WIND       PRES   REMARKS
LAREDO         CLEAR     57  41  55 NE21G28   30.17R
COTULLA        CLOUDY    55  35  47 NE14      30.24R
DEL RIO        CLOUDY    54  33  45 NE10G16   30.25R
MCALLEN        CLEAR     63  59  87 NE10      30.15R
HEBBRONVILLE   CLOUDY    56  34  43 NE9       30.20R
$$

...OTHER TEXAS OBSERVATIONS...

CITY           SKY/WX    TMP DP  RH WIND       PRES   REMARKS
BROWNSVILLE    PTCLDY    63  60  90 N5        30.14R
HOUSTON        PTCLDY    46  35  65 N12       30.25R
COL. STATION   CLEAR     44  30  57 N12       30.29R
AUSTIN         MOCLDY    43  30  60 N17G26    30.31R
TEMPLE         CLEAR     36  33  89 NW6       30.35R
WACO           CLEAR     37  32  82 N7        30.35R
FORT WORTH     PTCLDY    40  31  70 N5        30.33R
WICHITA FALLS  CLEAR     37  30  75 CALM      30.33R
LUBBOCK        PTCLDY    31  21  66 SE3       30.29R
EL PASO        MOCLDY    46  25  43 NE8       30.08R
$$

...MARINE OBSERVATIONS...

STATION/POSITION TIME  SKY/WX   TEMP    WIND        PRES    VSBY  WAVE   SWELL
                                AIR SEA DIR/SP/G                  HT/PER HT/PER
                 (UTC)          (F)     (DEG/KT/KT) (MB)    (MI)  (FT/S) (FT/S)
PORT ARANSAS     1200            55 69  360/ 22/ 24 1022.5R
MALAQUITE BEACH  1130            59     350/ 20/ 25   N/A
BUOY 6 SE PORT A 1130               70                N/A           4/ 4
BUOY 90 E PORT A 1150            66 71   30/ 19/ 23 1020.9R         4/ 4   2/ 7
BUOY 45 SE BAFFI NOT AVBL
BUOY 200 E PT IS 1150            70 75              1019.3R         3/ 6   2/ 6
BUOY 15 E GALVES 1150            56 71   20/ 23/ 29 1021.3R
$$




USA.gov is the U.S. government's official web portal to all federal, state and local government web resources and services.